Location: Unspecified
(40.7945°N, 0.0000°E)
Time: 19:50:32
(UTC+00:00)

N. Korean satellite - Visible Passes

Search period start: 25 November 2020 00:00
Search period end: 05 December 2020 00:00
Orbit: 452 x 504 km, 97.2° (Epoch: 25 November)

Date Brightness Start Highest point End Pass type
(mag) Time Alt. Az. Time Alt. Az. Time Alt. Az.
25 Nov 7.5 05:14:44 10° NNE 05:18:14 50° E 05:21:45 10° S visible
25 Nov 9.2 17:23:18 10° SSW 17:26:07 24° W 17:28:57 10° NW visible
26 Nov 9.1 04:48:59 10° NE 04:51:53 23° E 04:54:49 10° SSE visible
26 Nov 7.8 06:22:22 10° NNW 06:25:06 21° WNW 06:27:51 10° WSW visible
26 Nov 7.3 16:56:25 10° S 16:59:45 56° W 17:03:08 10° NNW visible
27 Nov 10.1 04:24:22 10° ENE 04:25:27 11° E 04:26:31 10° ESE visible
27 Nov 6.9 05:55:33 10° N 05:58:59 43° WNW 06:02:25 10° SW visible
28 Nov 6.6 05:29:08 10° NNE 05:32:45 82° ESE 05:36:24 10° S visible
28 Nov 9.7 17:38:31 10° SW 17:40:40 16° W 17:42:52 10° NW visible
29 Nov 8.2 05:03:05 10° NNE 05:06:26 35° E 05:09:48 10° SSE visible
29 Nov 8.4 17:11:06 10° SSW 17:14:14 34° W 17:17:25 10° NNW visible
30 Nov 9.6 04:37:36 10° NE 04:40:02 17° E 04:42:28 10° SE visible
30 Nov 7.4 06:10:14 10° NNW 06:13:22 28° WNW 06:16:32 10° SW visible
01 Dec 6.5 05:43:35 10° N 05:47:11 63° WNW 05:50:48 10° SSW visible
01 Dec 10.2 17:54:38 10° W 17:55:13 10° W 17:55:47 10° W visible
02 Dec 7.3 05:17:18 10° NNE 05:20:54 56° E 05:24:31 10° S visible
02 Dec 9.3 17:25:58 10° SSW 17:28:42 22° W 17:31:28 10° NW visible
03 Dec 8.9 04:51:26 10° NE 04:54:31 25° E 04:57:36 10° SSE visible
03 Dec 7.9 06:25:01 10° NNW 06:27:41 20° WNW 06:30:22 10° WSW visible
03 Dec 7.5 16:58:57 10° S 17:02:17 51° W 17:05:40 10° NNW visible
04 Dec 10.0 04:26:27 10° ENE 04:28:02 12° E 04:29:37 10° ESE visible
04 Dec 7.0 05:58:06 10° N 06:01:32 40° WNW 06:04:59 10° SW visible
